EHI
0 0 0 0 0 0 0 0 0 0 0 0 0 0 0 0 0 0 0 1 2 2 3 4 5 6 6 5 4 4 3 2 2 1 0 0 0 0 0 0 0 0 0
0 0 0 0 0 0 0 0 0 0 0 0 0 0 0 0 0 0 0 0 1 1 3 3 4 6 6 5 4 5 5 4 3 2 1 0 0 0 0 0 0 0 0
0 0 0 0 0 0 0 0 0 0 0 0 0 0 0 0 0 0 0 0 0 1 2 3 4 5 5 5 5 6 6 5 5 4 2 1 0 0 0 0 0 0 0
0 0 0 0 0 0 0 0 0 0 0 0 0 0 0 0 0 0 0 0 0 0 1 2 2 3 4 4 5 6 6 6 6 5 3 1 0 0 0 0 0 0 0
0 0 0 0 0 0 0 0 0 0 0 0 0 0 0 0 0 0 0 0 0 0 0 1 1 2 3 4 6 7 6 4 4 5 5 4 2 0 0 0 0 0 0
1 1 1 1 0 0 0 0 0 0 0 0 0 0 0 0 0 0 0 0 0 0 0 0 0 1 2 3 6 7 5 3 3 4 7 8 7 3 1 0 0 0 0
1 2 2 1 0 0 0 0 0 0 0 0 0 0 0 0 0 0 0 0 0 0 0 0 0 0 0 1 2 4 4 4 3 4 8 11 11 6 2 0 0 0 0
0 1 1 1 0 0 0 0 0 0 0 0 0 0 0 0 0 0 0 0 0 0 0 0 0 0 0 0 1 1 2 3 4 5 7 11 11 7 3 1 1 0 0
0 0 0 0 0 0 0 0 0 0 0 0 0 0 0 0 0 0 0 0 0 0 0 0 0 0 0 1 1 0 1 1 3 4 6 8 9 6 3 2 2 1 0
0 0 0 0 0 0 0 0 0 0 1 1 1 0 0 0 0 0 0 0 0 0 0 0 0 0 0 0 0 0 0 1 1 2 3 6 7 6 4 3 2 1 0
0 0 0 1 1 1 1 0 0 1 2 2 2 1 0 0 0 0 0 0 0 0 0 0 0 0 0 0 0 0 0 0 0 0 1 3 5 6 4 3 2 2 2
0 0 0 1 2 2 2 1 1 2 3 3 3 2 1 1 0 0 0 0 0 1 1 1 1 1 1 1 0 0 0 0 0 0 0 1 2 4 3 1 1 2 3
0 0 0 1 2 3 3 3 3 3 3 4 3 3 3 2 1 1 1 1 1 2 2 2 2 2 2 2 1 0 0 0 0 0 0 0 0 1 1 0 0 1 1
2 2 1 1 1 2 3 3 3 3 4 4 4 3 3 4 3 3 3 2 3 3 2 1 2 2 2 1 1 0 0 0 0 0 0 0 0 0 0 0 0 0 0
5 5 3 2 2 2 2 3 3 3 3 4 3 3 4 5 5 5 4 3 4 3 1 0 1 1 0 0 0 0 0 0 0 0 0 0 0 0 0 0 0 0 0
6 6 4 3 2 1 1 1 2 2 2 2 2 2 3 4 6 6 5 4 4 3 1 0 0 0 0 0 0 0 0 0 0 0 0 0 0 0 0 0 0 0 0
6 6 5 4 3 1 0 0 1 1 1 1 1 1 2 3 5 6 5 4 4 3 2 0 0 0 0 0 0 0 0 0 0 0 0 0 0 0 0 0 0 0 0
6 6 5 4 3 1 0 0 0 0 0 0 1 2 3 3 4 4 4 3 3 4 3 2 1 0 0 0 0 0 0 0 0 0 0 0 0 0 0 0 0 0 0
6 5 4 4 3 2 1 0 0 0 0 0 1 2 2 2 2 2 2 1 2 3 3 3 2 1 1 0 0 0 0 1 1 1 1 1 1 0 0 0 0 0 0
4 4 4 4 4 2 1 0 0 0 0 0 1 1 1 1 1 1 0 0 1 1 1 2 3 2 2 1 1 1 1 2 2 2 2 2 2 1 1 0 0 0 0
3 3 4 5 4 2 1 0 0 0 0 0 0 0 0 0 0 0 0 0 0 0 0 1 1 3 3 3 2 2 3 3 3 3 3 3 3 3 2 1 1 1 0
4 4 5 6 4 2 1 0 0 0 0 0 0 0 0 0 0 0 0 0 0 0 0 0 1 2 3 3 3 3 3 3 3 3 3 3 3 3 3 2 2 1 1
5 5 6 6 4 2 0 0 0 0 0 0 0 0 0 0 0 0 0 0 0 0 0 0 1 2 2 3 2 2 3 3 3 3 3 3 3 3 3 3 1 1 0
6 6 6 5 4 1 0 0 0 0 0 0 0 0 0 0 0 0 0 0 0 0 0 0 0 1 1 1 1 1 2 3 3 3 3 3 3 3 3 2 1 0 0
6 6 5 4 3 2 1 0 0 0 0 0 0 0 0 0 0 0 0 0 0 0 0 0 0 0 0 0 0 1 2 3 3 3 3 3 3 2 1 1 0 0 0
6 5 4 4 3 2 1 0 0 0 0 0 0 0 0 0 0 0 0 0 0 0 0 0 0 0 0 0 0 0 1 3 3 3 3 3 3 1 0 0 0 0 0
Wind_Speed
1 0 0 0 1 0 0 0 1 1 1 1 2 2 3 3 3 3 3 6 7 7 8 8 8 8 8 8 8 8 8 8 8 8 8 8 7 7 7 7 7 7 8
1 1 1 1 1 1 1 1 1 1 1 1 2 3 3 4 4 4 3 4 6 7 8 8 8 8 8 8 8 8 8 8 7 7 7 8 8 8 7 8 7 7 8
2 1 1 1 1 1 1 1 1 1 1 1 2 3 3 3 4 4 4 3 4 6 8 8 8 8 8 8 8 7 7 7 7 6 7 7 7 7 8 8 7 7 8
2 1 1 1 1 0 0 0 1 1 1 2 2 2 2 2 3 3 3 3 3 3 5 7 7 7 8 8 8 7 7 7 7 7 8 8 8 8 8 9 9 9 9
2 2 1 1 1 0 0 1 1 1 1 2 2 2 2 2 2 2 3 3 3 3 3 4 5 6 7 7 7 7 7 7 7 7 7 8 8 8 8 8 8 8 8
1 2 1 1 1 0 1 1 1 1 1 2 2 2 2 2 1 2 2 2 2 3 3 3 2 3 6 7 7 8 8 8 7 7 7 7 7 7 8 8 8 9 8
1 1 1 1 1 1 1 1 1 1 1 1 1 2 2 1 1 1 1 1 2 2 2 2 2 2 3 5 6 7 8 8 7 7 7 7 7 7 7 8 8 8 9
1 2 2 1 1 1 1 1 1 1 1 0 1 0 2 3 2 1 0 1 1 1 1 2 2 2 3 2 3 6 6 7 7 7 7 7 7 7 7 7 7 8 8
2 1 1 1 1 1 2 2 1 2 1 1 1 2 1 2 2 2 1 1 1 1 1 1 2 2 2 2 2 4 6 6 7 8 7 7 7 7 8 8 7 7 8
1 1 1 1 2 2 2 2 2 2 2 2 1 1 1 2 1 2 2 1 1 1 2 2 2 2 2 2 2 3 4 5 6 7 7 7 7 6 7 7 8 8 8
1 1 1 1 1 1 2 2 1 2 2 2 2 1 1 1 1 1 2 2 2 1 1 2 2 2 2 2 2 3 4 4 5 6 6 7 7 7 7 7 8 8 8
1 1 1 1 1 1 2 2 2 2 2 2 1 1 2 2 2 2 3 2 2 2 2 2 2 2 2 2 3 3 3 3 4 5 5 6 7 7 7 6 7 7 7
1 2 1 1 1 2 2 1 1 1 2 2 2 1 2 2 1 2 2 2 2 2 2 1 1 2 2 2 2 3 4 4 4 5 5 5 6 6 6 6 6 6 7
2 2 1 2 2 1 1 1 1 1 1 1 2 1 1 1 2 2 2 2 1 1 1 3 2 2 2 2 3 3 3 4 4 5 5 5 5 5 5 6 6 5 5
2 1 1 1 1 1 1 1 1 1 1 1 2 2 2 1 1 2 2 2 2 2 3 2 2 2 2 2 2 2 3 4 4 4 5 5 5 5 5 6 5 5 5
1 1 0 0 0 0 0 1 1 1 1 1 1 1 1 1 1 1 1 2 2 3 3 2 2 2 2 3 2 2 3 4 4 4 5 5 5 5 6 5 5 5 5
1 1 1 1 0 0 0 1 1 1 1 1 1 1 1 1 1 1 0 1 1 2 3 3 2 2 2 3 3 2 2 3 3 5 6 6 6 6 6 6 6 6 6
1 1 1 0 0 0 0 0 1 0 1 1 1 1 2 1 1 1 0 1 1 2 2 3 2 2 2 3 3 3 3 2 3 5 6 6 6 7 7 7 7 6 6
1 1 0 0 1 1 1 1 1 1 1 1 1 1 2 1 1 1 1 1 1 1 1 2 3 2 2 2 2 2 3 2 3 3 5 5 6 7 7 7 7 7 6
0 0 0 0 1 0 1 1 0 1 1 1 1 1 1 1 1 1 1 1 1 1 1 1 2 2 2 2 1 2 2 2 3 3 3 3 5 6 6 6 7 7 7
0 0 0 0 1 1 1 1 0 0 0 1 1 1 1 1 0 0 1 1 1 1 1 1 2 2 2 2 2 2 3 3 3 2 2 3 3 3 4 5 7 7 7
0 0 0 0 1 1 1 0 1 0 0 0 1 2 1 1 2 1 1 0 1 1 2 2 2 3 4 3 3 3 2 2 3 1 2 3 2 3 3 3 5 7 7
0 0 1 1 1 2 1 1 1 1 1 1 1 1 1 1 1 1 2 2 2 2 3 3 3 4 4 4 3 4 3 3 4 3 2 4 3 4 4 4 5 7 7
0 1 1 1 1 2 2 2 1 0 0 1 1 1 1 2 2 1 1 2 2 2 3 2 3 4 4 4 4 4 4 4 4 3 2 3 3 3 4 3 5 6 7
1 1 1 1 1 2 2 1 1 1 1 1 1 1 1 2 3 1 0 2 3 3 2 2 3 4 4 4 2 1 2 2 4 3 2 2 2 3 3 3 3 4 5
2 1 1 1 2 2 2 1 1 1 0 1 2 2 2 2 3 1 1 1 2 4 4 4 3 4 4 3 2 2 2 3 3 3 2 2 2 2 3 2 2 2 3
Wind_Direction
219 269 315 313 300 280 230 273 289 306 309 299 275 261 252 240 235 227 232 237 239 235 229 226 227 227 224 221 219 219 219 219 216 214 215 219 220 220 222 221 221 217 219
200 213 261 273 279 257 243 248 269 285 289 282 277 267 257 254 245 239 233 239 240 238 233 233 234 232 227 223 222 223 222 222 220 216 218 220 220 222 224 227 227 228 226
203 209 238 258 269 262 253 276 298 306 288 279 277 272 261 256 249 242 237 233 238 240 236 233 234 229 227 228 226 224 219 219 214 210 216 220 219 219 220 220 223 228 228
208 204 223 260 270 268 235 233 269 289 285 282 280 275 270 260 256 243 234 229 230 236 236 234 231 228 229 230 230 224 218 217 211 209 211 216 216 221 227 224 225 226 224
211 200 222 253 248 239 248 257 237 226 269 283 274 266 268 256 256 249 235 233 231 232 232 238 236 233 232 230 233 229 223 218 217 218 221 221 223 225 229 229 224 225 221
215 204 223 255 233 206 280 259 252 250 257 278 287 299 289 274 262 261 259 252 242 240 234 234 239 247 241 235 233 231 230 226 224 226 228 225 225 226 227 227 227 225 221
222 207 239 240 216 214 255 260 247 258 284 300 337 330 321 305 288 281 275 265 261 249 236 231 230 237 246 240 237 236 235 232 230 232 230 228 228 229 229 232 230 228 227
249 239 220 232 228 218 254 267 234 233 290 44 134 6 336 339 340 344 292 249 267 259 244 237 227 229 240 240 247 239 236 235 235 235 234 232 231 231 231 233 231 229 228
269 263 245 225 223 219 239 244 236 215 244 270 176 164 168 261 310 324 335 330 317 277 262 246 235 238 235 233 248 249 241 239 237 240 241 239 234 232 232 231 231 232 230
297 287 267 242 228 222 236 248 223 215 212 238 236 211 196 180 203 308 318 327 320 289 273 270 259 247 239 233 241 251 250 249 246 248 249 247 241 237 236 233 232 234 236
316 305 266 254 250 243 244 244 222 204 205 215 212 193 199 206 203 216 283 315 333 317 287 269 262 258 248 242 244 257 253 252 252 253 255 250 244 238 236 238 240 241 242
290 297 257 253 270 266 243 243 241 208 212 223 220 197 185 195 198 198 239 270 287 296 297 288 275 266 258 250 255 272 261 254 247 250 255 252 246 241 238 238 243 242 242
271 267 251 233 245 256 254 244 240 223 218 213 213 222 218 218 196 193 215 247 264 287 300 289 267 264 262 252 260 273 265 257 249 253 256 256 251 246 241 242 246 248 247
260 268 256 248 244 246 250 223 232 236 218 224 222 211 220 233 211 210 207 209 249 288 289 278 274 253 259 262 265 265 265 258 254 256 253 256 255 250 248 246 247 251 256
253 271 277 276 287 279 250 207 222 245 221 231 228 220 222 241 221 223 218 209 205 246 274 274 273 275 270 262 270 261 262 265 260 258 254 254 255 250 247 245 243 245 249
271 277 303 307 6 1 213 197 219 237 207 244 231 227 256 266 265 254 236 224 212 212 244 259 257 276 290 293 288 268 258 273 264 262 258 252 250 251 249 247 243 243 242
275 267 263 259 242 136 207 185 199 175 197 250 273 245 266 263 264 279 258 229 229 213 235 265 266 276 271 287 307 291 269 258 267 263 259 252 248 248 249 247 247 245 244
282 269 267 277 280 317 296 224 236 217 213 246 272 271 278 271 283 276 239 229 231 228 231 264 282 287 275 284 291 291 292 284 274 266 259 258 253 250 250 249 248 246 246
318 346 50 20 319 312 304 273 220 220 235 247 250 245 261 255 275 283 246 248 255 255 241 257 283 283 280 293 300 300 303 301 293 278 261 259 263 260 253 249 249 250 249
307 323 333 266 263 282 328 309 218 196 232 260 257 248 247 231 244 250 241 257 260 270 272 269 284 292 286 298 294 294 304 305 299 295 289 284 276 269 265 260 256 253 249
281 242 123 319 295 262 292 302 263 215 303 324 321 306 284 282 273 253 267 262 252 242 261 277 285 293 296 304 299 287 286 299 291 279 294 292 286 279 272 261 258 253 248
297 105 180 278 312 303 312 293 214 210 233 308 320 325 313 337 331 322 324 293 204 222 242 251 266 272 278 279 289 290 289 300 298 288 291 291 285 283 280 265 257 251 247
291 254 298 346 319 308 319 305 218 189 193 213 245 304 317 335 341 335 321 321 302 277 223 222 248 261 270 269 275 281 276 273 271 284 283 284 285 287 288 284 268 258 251
205 230 270 295 299 311 338 2 3 166 198 284 268 238 274 320 327 324 313 329 311 294 266 241 247 262 269 267 251 255 268 277 278 264 249 271 286 289 295 283 268 255 251
255 260 258 264 278 302 316 335 61 31 13 326 312 325 273 280 301 299 311 311 318 317 299 282 273 281 290 293 279 278 281 280 290 284 238 253 278 294 290 279 274 263 259
239 240 267 268 260 276 279 239 170 184 244 292 305 298 275 276 295 259 231 265 298 302 316 320 316 314 311 310 295 251 255 271 283 278 238 245 273 305 295 284 296 298 284